Change the Weather History Date:

Thursday, October 3, 2013

  Actual Average Record
Temperature  
Mean Temperature 82 °F -  
Max Temperature 88 °F 86 °F 91 °F (1961)
Min Temperature 77 °F 77 °F 71 °F (1950)
Cooling Degree Days 18    
Growing Degree Days 32 (Base 50)    
Moisture  
Dew Point 74 °F    
Average Humidity 77    
Maximum Humidity 89    
Minimum Humidity 31    
Precipitation  
Precipitation 0.54 in - - ()
Sea Level Pressure  
Sea Level Pressure 29.99 in    
Wind  
Wind Speed 11 mph (East)    
Max Wind Speed 24 mph    
Max Gust Speed 30 mph    
Visibility 9 miles    
Events Rain , Thunderstorm    
Averages and records for this station are not official NWS values.
T = Trace of Precipitation, MM = Missing Value Source: NWS Daily Summary

Daily Weather History Graph

Daily Weather History Graph

Search for Another Location

Airport or City:

Trip Planner

Search our weather history database for the weather conditions in past years. The results will help you decide how hot, cold, wet, or windy it might be!

Date:

Astronomy

Oct. 03, 2013 Rise Set
Actual Time 7:19 AM EDT 7:11 PM EDT
Civil Twilight 6:56 AM EDT 7:34 PM EDT
Nautical Twilight 6:30 AM EDT 8:00 PM EDT
Astronomical Twilight 6:04 AM EDT 8:26 PM EDT
Moon 5:57 AM EDT (10/3) 6:16 PM EDT (10/3)
Length of Visible Light 12h 37m
Length of Day
11h 51m
Waning Crescent, 2% of the Moon is Illuminated
Oct 3
Waning Crescent
Oct 4
New
Oct 11
First Quarter
Oct 18
Full
Oct 26
Last Quarter

Hourly Weather History & Observations

Time (EDT) Temp. Heat Index Dew Point Humidity Pressure Visibility Wind Dir Wind Speed Gust Speed Precip Events Conditions
12:53 AM 81.0 °F 86.7 °F 75.0 °F 82% 29.99 in 10.0 mi East 9.2 mph - N/A   Partly Cloudy
1:53 AM 81.0 °F 86.7 °F 75.0 °F 82% 29.97 in 10.0 mi East 10.4 mph - N/A   Scattered Clouds
2:53 AM 81.0 °F 86.7 °F 75.0 °F 82% 29.95 in 10.0 mi East 8.1 mph - N/A   Clear
3:53 AM 81.0 °F 86.7 °F 75.0 °F 82% 29.94 in 10.0 mi ESE 8.1 mph - N/A   Partly Cloudy
4:53 AM 81.0 °F 85.8 °F 73.0 °F 77% 29.92 in 10.0 mi East 9.2 mph - N/A   Clear
5:53 AM 81.0 °F 86.7 °F 75.0 °F 82% 29.93 in 10.0 mi East 12.7 mph - N/A   Clear
6:08 AM 82.4 °F 89.5 °F 75.2 °F 79% 29.94 in 10.0 mi ESE 11.5 mph - N/A   Mostly Cloudy
6:53 AM 82.0 °F 88.6 °F 75.0 °F 79% 29.94 in 10.0 mi ESE 11.5 mph - N/A   Mostly Cloudy
7:48 AM 82.4 °F 89.5 °F 75.2 °F 79% 29.96 in 10.0 mi East 12.7 mph - N/A   Overcast
7:53 AM 82.9 °F 90.2 °F 75.0 °F 77% 29.96 in 10.0 mi East 12.7 mph - N/A   Overcast
8:08 AM 82.4 °F 89.5 °F 75.2 °F 79% 29.97 in 10.0 mi East 15.0 mph - 0.00 in Rain Light Rain
8:51 AM 82.4 °F 89.5 °F 75.2 °F 79% 29.99 in 10.0 mi East 10.4 mph - 0.00 in   Mostly Cloudy
8:53 AM 82.0 °F 89.4 °F 75.9 °F 82% 29.99 in 10.0 mi East 11.5 mph - 0.00 in   Mostly Cloudy
9:02 AM 82.4 °F 89.5 °F 75.2 °F 79% 29.99 in 10.0 mi East 13.8 mph - N/A Thunderstorm Thunderstorm
9:33 AM 82.4 °F 89.5 °F 75.2 °F 79% 30.01 in 10.0 mi East 12.7 mph - N/A Thunderstorm Thunderstorm
9:53 AM 82.9 °F 90.2 °F 75.0 °F 77% 30.01 in 10.0 mi East 12.7 mph - N/A   Mostly Cloudy
10:53 AM 84.0 °F 91.9 °F 75.0 °F 74% 30.02 in 10.0 mi ESE 12.7 mph - N/A   Overcast
11:53 AM 86.0 °F 96.0 °F 75.9 °F 72% 30.03 in 10.0 mi ESE 11.5 mph - N/A   Overcast
12:17 PM 80.6 °F 85.4 °F 73.4 °F 79% 30.03 in 10.0 mi South 21.9 mph 26.5 mph 0.00 in Rain Light Rain
12:31 PM 78.8 °F - 71.6 °F 78% 30.04 in 2.0 mi South 11.5 mph 20.7 mph 0.01 in Rain Rain
12:36 PM 78.8 °F - 73.4 °F 83% 30.04 in 1.0 mi ESE 24.2 mph 29.9 mph 0.14 in Rain Heavy Rain
12:44 PM 77.0 °F - 73.4 °F 89% 30.04 in 5.0 mi NE 8.1 mph - 0.51 in Rain Rain
12:53 PM 78.1 °F - 71.1 °F 79% 30.03 in 10.0 mi East 12.7 mph 21.9 mph 0.53 in   Overcast
1:03 PM 78.8 °F - 71.6 °F 78% 30.03 in 10.0 mi ENE 6.9 mph - 0.01 in   Overcast
1:53 PM 84.9 °F 95.3 °F 77.0 °F 77% 30.00 in 10.0 mi ESE 10.4 mph - 0.01 in   Overcast
2:53 PM 88.0 °F 101.3 °F 78.1 °F 72% 29.98 in 10.0 mi SE 11.5 mph - N/A   Mostly Cloudy
3:53 PM 86.0 °F 96.0 °F 75.9 °F 72% 29.97 in 10.0 mi ESE 10.4 mph - N/A   Mostly Cloudy
4:53 PM 84.9 °F 94.1 °F 75.9 °F 74% 29.97 in 10.0 mi East 10.4 mph - N/A   Mostly Cloudy
5:53 PM 84.0 °F 91.9 °F 75.0 °F 74% 29.96 in 10.0 mi ESE 8.1 mph - N/A   Overcast
6:53 PM 82.9 °F 90.2 °F 75.0 °F 77% 29.98 in 10.0 mi East 9.2 mph - N/A   Overcast
7:53 PM 82.9 °F 90.8 °F 75.9 °F 79% 29.98 in 10.0 mi East 6.9 mph - N/A   Overcast
8:53 PM 82.0 °F 89.4 °F 75.9 °F 82% 29.99 in 10.0 mi ENE 12.7 mph - N/A   Overcast
9:53 PM 82.0 °F - 48.9 °F 31% 30.01 in 10.0 mi ENE 9.2 mph - N/A   Overcast
10:53 PM 82.0 °F 88.6 °F 75.0 °F 79% 30.01 in - East 10.4 mph - N/A   Clear